TimeEDT,TemperatureF,Dew PointF,Humidity,Sea Level PressureIn,VisibilityMPH,Wind Direction,Wind SpeedMPH,Gust SpeedMPH,PrecipitationIn,Events,Conditions,WindDirDegrees,DateUTC
12:51 AM,71.1,69.1,93,29.87,8.0,SW,4.6,-,N/A,,Clear,220,2013-08-31 04:51:00
1:51 AM,72.0,68.0,87,29.86,8.0,Calm,Calm,-,N/A,,Clear,0,2013-08-31 05:51:00
2:51 AM,70.0,68.0,93,29.87,7.0,Calm,Calm,-,N/A,,Mostly Cloudy,0,2013-08-31 06:51:00
3:51 AM,72.0,69.1,91,29.85,8.0,South,4.6,-,N/A,,Partly Cloudy,190,2013-08-31 07:51:00
4:51 AM,70.0,68.0,93,29.86,6.0,South,3.5,-,N/A,,Clear,190,2013-08-31 08:51:00
5:51 AM,70.0,68.0,93,29.86,6.0,SW,3.5,-,N/A,,Scattered Clouds,220,2013-08-31 09:51:00
6:51 AM,69.1,68.0,96,29.86,3.0,Calm,Calm,-,N/A,,Partly Cloudy,0,2013-08-31 10:51:00
7:47 AM,71.6,69.8,94,29.86,2.5,Calm,Calm,-,N/A,,Clear,0,2013-08-31 11:47:00
7:51 AM,71.1,70.0,96,29.86,3.0,Calm,Calm,-,N/A,,Clear,0,2013-08-31 11:51:00
8:44 AM,75.2,69.8,83,29.87,8.0,West,4.6,-,N/A,,Mostly Cloudy,280,2013-08-31 12:44:00
8:51 AM,75.0,70.0,84,29.86,8.0,WSW,5.8,-,N/A,,Mostly Cloudy,250,2013-08-31 12:51:00
9:03 AM,75.2,69.8,83,29.86,9.0,WSW,5.8,-,N/A,,Scattered Clouds,240,2013-08-31 13:03:00
9:34 AM,78.8,71.6,78,29.87,9.0,SW,6.9,-,N/A,,Mostly Cloudy,220,2013-08-31 13:34:00
9:51 AM,77.0,70.0,79,29.86,9.0,WSW,5.8,-,N/A,,Mostly Cloudy,250,2013-08-31 13:51:00
10:51 AM,81.0,72.0,74,29.86,9.0,SW,6.9,-,N/A,,Clear,220,2013-08-31 14:51:00
11:51 AM,82.0,72.0,71,29.84,9.0,WSW,6.9,-,N/A,,Clear,250,2013-08-31 15:51:00
12:51 PM,84.0,72.0,67,29.83,10.0,SW,4.6,-,N/A,,Scattered Clouds,230,2013-08-31 16:51:00
12:59 PM,84.2,71.6,66,29.84,10.0,Variable,5.8,-,N/A,,Mostly Cloudy,0,2013-08-31 16:59:00
1:31 PM,84.2,71.6,66,29.83,10.0,SW,5.8,-,N/A,,Mostly Cloudy,230,2013-08-31 17:31:00
1:51 PM,82.0,71.1,69,29.83,9.0,West,8.1,-,N/A,,Mostly Cloudy,260,2013-08-31 17:51:00
2:51 PM,82.0,72.0,71,29.83,7.0,West,6.9,-,N/A,,Clear,260,2013-08-31 18:51:00
3:51 PM,84.0,72.0,67,29.80,7.0,SW,6.9,-,N/A,,Clear,220,2013-08-31 19:51:00
4:51 PM,84.9,72.0,65,29.79,8.0,SSW,8.1,-,N/A,,Mostly Cloudy,210,2013-08-31 20:51:00
5:51 PM,82.9,73.0,72,29.80,9.0,SSW,10.4,-,N/A,,Partly Cloudy,210,2013-08-31 21:51:00
6:51 PM,82.0,73.0,74,29.80,9.0,South,4.6,-,N/A,,Scattered Clouds,190,2013-08-31 22:51:00
7:51 PM,81.0,73.0,77,29.81,10.0,South,4.6,-,N/A,,Clear,180,2013-08-31 23:51:00
8:51 PM,80.1,72.0,76,29.81,10.0,SSW,8.1,-,N/A,,Partly Cloudy,210,2013-09-01 00:51:00
9:51 PM,78.1,72.0,81,29.84,10.0,WSW,6.9,-,N/A,,Clear,240,2013-09-01 01:51:00
10:51 PM,78.1,72.0,81,29.83,10.0,SW,6.9,-,N/A,,Clear,230,2013-09-01 02:51:00
11:51 PM,78.1,72.0,81,29.81,10.0,South,6.9,-,N/A,,Partly Cloudy,190,2013-09-01 03:51:00